Regional Weather Roundup
Issued by NWS

Home | Current Version | Previous Version | Graphics & Text | Print | Product List | Glossary Off
Versions: 1 2 3 4 5 6 7 8 9 10 11 12 13 14 15 16 17 18 19 20 21 22 23 24 25 26 27 28 29 30 31 32 33 34 35 36 37 38 39 40 41 42 43 44 45 46 47 48 49 50

172
ASUS43 KDMX 051706
RWRIA

WEATHER ROUNDUP FOR IOWA
NATIONAL WEATHER SERVICE DES MOINES IA
1100 AM CST MON DEC 05 2016

NOTE: "FAIR" INDICATES FEW OR NO CLOUDS BELOW 12,000 FEET WITH NO
SIGNIFICANT WEATHER AND/OR OBSTRUCTIONS TO VISIBILITY.

* - THESE STATIONS ARE NOT NWS STATIONS...THUS NOT UNDER NWS
QUALITY CONTROL.  THEY ALSO DO NOT REPORT WEATHER SUCH
AS PRECIPITATION OR FOG.

IAZ001>003-012>014-020>022-031>034-043>046-051800-
   NORTHWEST IOWA

CITY           SKY/WX    TMP DP  RH WIND       PRES   REMARKS
CARROLL *      SUNNY     43  37  81 S15G22    29.73F
CHEROKEE *     MOSUNNY   43  34  68 S20G25    29.66F
DENISON *      SUNNY     43  34  70 S21G28    29.70S
LE MARS *      MOSUNNY   43  32  65 S25G33    29.61F
ORANGE CITY *  MOSUNNY   43  34  70 S20G32    29.59F
SHELDON *      MOSUNNY   41  36  81 S21       29.57F
SIOUX CITY     MOSUNNY   43  31  62 S23G29    29.63F
SPENCER        MOSUNNY   42  33  70 S29G39    29.63F
STORM LAKE *   SUNNY     41  34  75 S24G32    29.67F
$$

IAZ055>058-069>071-079>083-090>094-051800-
   SOUTHWEST IOWA

CITY           SKY/WX    TMP DP  RH WIND       PRES   REMARKS
ATLANTIC *     SUNNY     43  37  81 S18G25    29.76F
AUDUBON *      SUNNY     41  36  81 S15G22    29.75F
CLARINDA *       N/A     45  39  81 S14       29.81F
COUNCIL BLFS * MOSUNNY   45  32  61 S17G26    29.72S
CRESTON *      SUNNY     43  37  81 S20       29.82F
HARLAN  *      SUNNY     41  37  87 S14G21    29.77F
LAMONI         CLOUDY    36  35  96 S12G21    29.85F WCI  28
RED OAK *      SUNNY     45  37  76 S14       29.78F
SHENANDOAH *   SUNNY     45  37  76 S13G22    29.79F
$$

IAZ047>049-059>061-072>074-084-051800-
   CENTRAL IOWA

CITY           SKY/WX    TMP DP  RH WIND       PRES   REMARKS
AMES           MOSUNNY   36  35  96 S12       29.82F WCI  28
ANKENY *       SUNNY     41 N/A N/A S12       29.85S
BOONE *        CLOUDY    36  34  93 S15       29.78F WCI  26
CHARITON *       N/A     41  37  87 S20G26    29.86F
DES MOINES     MOSUNNY   44  37  76 S17       29.84F
GRINNELL*      FOG       33  32  99 S14G21    29.88S VSB 1/4 WCI  23
KNOXVILLE *    SUNNY     43  37  81 S16       29.85F
MARSHALLTOWN   CLOUDY    34  34 100 S10       29.85R WCI  26
NEWTON *       PTSUNNY   36  34  93 S13       29.85F FOG     WCI  27
PELLA *        PTSUNNY   39  38  96 S14       29.89F WCI  30
PERRY *          N/A     42  40  89 S15       29.79F
$$

IAZ004>006-015-016-023>025-035-036-051800-
   NORTH CENTRAL IOWA

CITY           SKY/WX    TMP DP  RH WIND       PRES   REMARKS
ALGONA *       MOSUNNY   39  34  81 S20       29.71F WCI  30
CLARION *      MOSUNNY   36  34  93 S20G25    29.77F WCI  25
ESTHERVILLE    CLOUDY    38  34  85 S18       29.66F WCI  28
FORT DODGE *   SUNNY     39  30  70 S14G21    29.76F WCI  31
MASON CITY     CLOUDY    33  31  92 SE14      29.80F WCI  23
FOREST CITY *    N/A     37  36  93 S15       29.76F WCI  28
WEBSTER CITY * MOSUNNY   36  34  93 SE16      29.76F WCI  26
IOWA FALLS *     N/A     35  33  94 SE15      29.82F WCI  25
$$

IAZ007>011-017>019-026>030-037>042-050>054-066-051800-
   NORTHEAST IOWA

CITY           SKY/WX    TMP DP  RH WIND       PRES   REMARKS
CEDAR RAPIDS   CLOUDY    31  31 100 S14       29.91S FOG     WCI  21
CLINTON *      MIX PCPN  33  32  96 S12       29.98  VSB 3/4 WCI  24
DECORAH *      FOG       32  32 100 SE9G15    29.84F VSB 1/4 WCI  24
DUBUQUE        SNOW      31  31 100 S14       29.93S VSB 1/4 WCI  21
MONTICELLO *   FOG       32  32 100 SE15      29.93F VSB 1/4 WCI  22
OELWEIN *      FOG       32  32 100 SE17      29.86F VSB<1/4 WCI  21
WATERLOO       CLOUDY    32  31  96 S14       29.87R FOG     WCI  22
$$

IAZ064-065-067-068-078-051800-
   EAST CENTRAL IOWA

CITY           SKY/WX    TMP DP  RH WIND       PRES   REMARKS
DAVENPORT      CLOUDY    32  31  96 S10       29.98R FOG     WCI  24
IOWA CITY      CLOUDY    32  31  96 S13       29.96F FOG     WCI  22
MUSCATINE *    CLOUDY    34  32  93 S14       29.98F FOG     WCI  24
QUAD CITIES    CLOUDY    34  31  88 S8        29.98S FOG     WCI  27
$$

IAZ062-063-075>077-085>089-095>099-051800-
   SOUTHEAST IOWA

CITY           SKY/WX    TMP DP  RH WIND       PRES   REMARKS
BURLINGTON     FOG       32  32 100 S12       29.97F VSB 1/4 WCI  23
FAIRFIELD *    FOG       34  32  93 S14       29.93F VSB 1/4 WCI  24
FORT MADISON * FOG       34  34 100 S13       29.97F VSB<1/4 WCI  25
KEOKUK *       CLOUDY    36  36 100 S7G14     29.97F WCI  30
OSKALOOSA *    CLOUDY    34  33  99 S16       29.91F FOG     WCI  23
CENTERVILLE *  CLOUDY    34  34 100 SE14      29.91F WCI  24
OTTUMWA        CLOUDY    34  33  96 S17       29.91F FOG     WCI  23
WASHINGTON *   FOG       32  32 100 S14       29.95F VSB 1/4 WCI  22
$$

ABBREVIATIONS USED IN REMARKS
   TC - TEMPERATURES IN CELSIUS
  WCI - WIND CHILL INDEX
   HX - HEAT INDEX
  VSB - VISIBILITY
$$





USA.gov is the U.S. government's official web portal to all federal, state and local government web resources and services.